{"data":{"norad_id":60437,"intl_designator":"2024-144N","name":"STARLINK-32241","alt_names":[],"object_type":"PAYLOAD","status":"ACTIVE","operator":null,"country":"US","launch_date":"2024-08-12","launch_site_code":"AFETR","launch_vehicle":null,"mission":null,"orbit_class":"UNKNOWN","rcs_meters":null,"size_class":null,"mass_kg":null,"dimensions":null,"purposes":["comms"],"wikipedia_slug":null,"has_3d_model":false,"image_url":null,"decayed_at":null,"tle_current":{"epoch":"2026-09-21T19:02:25.932480Z","epoch_age_seconds":76484,"freshness":"FRESH","line1":"1 60437U 24144N   26264.79335570 -.00000398  00000+0 -64257-6 0  9995","line2":"2 60437  53.1612  21.9850 0001088  76.5762 283.5361 15.34396429119392","mean_motion":15.34396429,"eccentricity":0.0001088,"inclination_deg":53.1612,"raan_deg":21.985,"arg_perigee_deg":76.5762,"mean_anomaly_deg":283.5361,"bstar":-6.4257e-7,"rev_number":11939,"period_min":93.847976493173,"perigee_km":461.96956941933,"apogee_km":463.45813856516,"semimajor_km":6840.8508539922,"source":"CELESTRAK","updated_at":"2026-09-22T09:00:49.235831Z"}}}